Weather in Maloyaroslavets

Russia / Kaluga Oblast     55°00′42″N   36°27′45″E
temp.,
°C
wind,
m/s
gust,
m/s
humid.,
%
clouds,
%
prec.,
mm/h
press.,
hPa
HPBL,
m
25 may, wed
wed2500:00+1n228535 0.0 101449
03:000nnw22925 0.0 101521
06:00+2n238211 0.0 1016142
09:00+7nnw235791 0.0 10161096
12:00+11nw2447100 0.0 10161574
15:00+12wnw3448100 0.0 10151728
18:00+8nnw248492 0.2 1016403
21:00+6sse119352 0.2 101510
26 may, thu
thu2600:00+4ssw229533 0.0 101519
03:00+4ssw2293100 0.0 101431
06:00+6sw128763 0.0 101276
09:00+15sw355751 0.0 1010491
12:00+16ssw4769100 1.1 1008986
15:00+15ssw4973100 1.7 1005455
18:00+10e3898100 4.7 1002367
21:00+10n23100100 15.6 1000150
27 may, fri
fri2700:00+9wnw51197100 5.8 1001665
03:00+8w41196100 6.3 1001427
06:00+8w41298100 0.1 1002602
09:00+9w51096100 0.4 1003774
12:00+13w697948 0.4 10041173
15:00+15w696436 1.1 10041610
18:00+15wsw51066100 0.1 10041467
21:00+11sw41088100 0.3 1004697
28 may, sat
sat2800:00+10s3999100 3.9 1001435
03:00+11ssw51197100 9.0 996794
06:00+8wsw5129386 1.3 1000936
09:00+10wsw7127934 1.6 10021207
12:00+9wsw61376100 0.1 10051327
15:00+14wsw711538 0.1 10051892
18:00+12sw5972100 0.2 10061207
21:00+8ssw31092100 0.7 1007310
29 may, sun
sun2900:00+8sw41192100 0.1 1008594
03:00+7sw4109812 0.1 1009384
06:00+7sw4119431 0.0 1011493
09:00+11sw577351 0.0 1012947
12:00+13sw5870100 0.4 10131207
15:00+15wsw695625 0.9 10131786
18:00+13sw5974100 0.3 1014983
21:00+9sw310925 0.4 1016338